Weather in Pančevo

Serbia     44°52′07″N   20°39′17″E
temp.,
°C
wind,
m/s
gust,
m/s
humid.,
%
clouds,
%
prec.,
mm/h
press.,
hPa
HPBL,
m
13 may, thu
thu1323:00+12sse23945 0.8 100870
02:00+11s23915 1.6 100747
05:00+12s128583 0.0 100620
08:00+15s227385 0.0 1007264
11:00+19wnw2452100 0.7 10061317
14:00+20sw4646100 0.8 10052202
17:00+16ssw6970100 0.6 1005486
20:00+14w1378100 1.3 100645
14 may, fri
fri1423:00+13w358597 0.3 1007192
02:00+12w3795100 2.6 1008338
05:00+12sse239594 5.8 100997
08:00+15sse448164 6.1 1010433
11:00+18sw236025 1.5 10101202
14:00+21w3547100 1.8 10092235
17:00+20w3652100 0.0 10091954
20:00+14se34835 0.3 100963
15 may, sat
sat1523:00+11s118639 0.7 101112
02:00+11se2290100 1.0 101121
05:00+10se118988 0.0 101113
08:00+14ese1179100 0.0 1012228
11:00+19ne116299 0.1 1011850
14:00+22s1246100 0.2 10091846
17:00+21s3249100 0.0 10081059
20:00+16w11668 0.1 100811
16 may, sun
sun1623:00+14sw1183100 0.9 100910
02:00+13ssw11845 1.2 100911
05:00+12sse118618 0.0 100911
08:00+16s117299 0.0 1009310
11:00+20w23565 0.0 1009972
14:00+22wnw454778 0.1 10081949
17:00+20wnw675960 0.1 1008897
20:00+15nw2276100 0.1 100923
17 may, mon
mon1723:00+14sw117790 0.0 100911
02:00+14se1179100 0.1 100911
05:00+13sw2283100 0.1 100832
08:00+14s3490100 1.6 1009313
11:00+15se3492100 0.6 1008318
14:00+21sw3462100 2.3 10071143
17:00+18w3574100 0.7 100684
20:00+16w2286100 1.6 100717